FW6455 Weather Reports


Display with metric or nautical units.
time (UTC)temp
F
wind
direction
speed
MPH
gust
MPH
rain 1hr
in
rain 24hr
in
rain mn
in
humidity
%
barometer
mb
20260507120537 52 0 0.0 0.0 0.00 0.08 0.00 92 1021.7
20260507120051 52 0 0.0 0.0 0.00 0.08 0.00 92 1021.7
20260507115539 52 0 0.0 0.0 0.00 0.08 0.00 92 1021.6
20260507115041 52 0 0.0 0.0 0.00 0.08 0.00 92 1021.4
20260507114552 52 0 0.0 0.0 0.00 0.08 0.00 92 1021.2
20260507114040 52 0 0.0 0.0 0.00 0.08 0.00 92 1021.1
20260507113538 52 0 0.0 0.0 0.00 0.08 0.00 92 1021.0
20260507113050 52 0 0.0 0.0 0.00 0.08 0.00 92 1020.9
20260507112540 52 0 0.0 0.0 0.00 0.08 0.00 92 1020.7
20260507112040 52 0 0.0 0.0 0.00 0.08 0.00 92 1020.7
20260507111547 52 0 0.0 0.0 0.00 0.08 0.00 92 1020.7
20260507111042 52 0 0.0 0.0 0.00 0.08 0.00 92 1020.6
20260507110539 52 0 0.0 0.0 0.00 0.08 0.00 91 1020.5
20260507110052 52 0 0.0 0.0 0.00 0.08 0.00 91 1020.6
20260507105541 52 0 0.0 0.0 0.00 0.08 0.00 91 1020.5
20260507105040 52 0 0.0 0.0 0.00 0.08 0.00 91 1020.3
20260507104559 52 0 0.0 0.0 0.00 0.08 0.00 91 1020.1
20260507104040 53 0 0.0 0.0 0.00 0.08 0.00 91 1019.9
20260507103540 53 0 0.0 0.0 0.00 0.08 0.00 91 1019.9
20260507103049 53 0 0.0 0.0 0.00 0.08 0.00 91 1019.6
20260507102541 53 0 0.0 0.0 0.00 0.08 0.00 91 1019.6
20260507102040 53 0 0.0 0.0 0.00 0.08 0.00 91 1019.6
20260507101553 53 0 0.0 0.0 0.00 0.08 0.00 91 1019.4
20260507101040 53 0 0.0 0.0 0.00 0.08 0.00 91 1019.2
20260507100540 53 0 0.0 0.0 0.00 0.08 0.00 91 1019.1
20260507100056 53 0 0.0 0.0 0.00 0.08 0.00 91 1019.0
20260507095541 53 0 0.0 0.0 0.00 0.08 0.00 90 1018.9
20260507095041 53 0 0.0 0.0 0.00 0.08 0.00 90 1018.9
20260507094553 53 0 0.0 0.0 0.00 0.08 0.00 90 1018.9
20260507094037 53 0 0.0 1.0 0.00 0.08 0.00 90 1018.9
20260507093540 53 0 0.0 1.0 0.00 0.08 0.00 90 1018.9
20260507093054 54 0 0.0 1.0 0.00 0.08 0.00 90 1018.7
20260507092540 54 0 0.0 1.0 0.00 0.08 0.00 90 1018.9
20260507092039 54 0 0.0 1.0 0.00 0.08 0.00 90 1018.9
20260507091553 54 77 0.0 1.0 0.00 0.08 0.00 90 1018.9
20260507091037 54 0 0.0 1.0 0.00 0.08 0.00 90 1019.2
20260507090537 54 0 0.0 1.0 0.00 0.08 0.00 90 1019.1
20260507090058 54 0 0.0 2.0 0.00 0.08 0.00 90 1018.8
20260507085541 54 0 0.0 2.0 0.00 0.08 0.00 90 1018.9
20260507085040 54 51 0.0 2.0 0.00 0.08 0.00 90 1018.7
20260507084553 54 0 0.0 2.0 0.00 0.08 0.00 90 1018.5
20260507084040 54 76 0.0 2.0 0.00 0.08 0.00 90 1018.6
20260507083541 55 0 0.0 1.0 0.00 0.08 0.00 90 1018.7
20260507083048 55 0 0.0 2.0 0.00 0.08 0.00 90 1018.8
20260507082540 55 0 0.0 2.0 0.00 0.08 0.00 90 1018.7
20260507082039 55 0 0.0 2.0 0.00 0.08 0.00 89 1018.7
20260507081554 55 0 0.0 2.0 0.00 0.08 0.00 89 1018.9
20260507081039 55 0 0.0 2.0 0.00 0.08 0.00 89 1018.8
20260507080541 55 75 0.0 3.0 0.00 0.08 0.00 89 1018.7
20260507075539 55 0 0.0 3.0 0.00 0.08 0.00 89 1018.4
20260507075040 56 0 1.0 3.0 0.00 0.08 0.00 89 1018.4
20260507074556 56 0 1.0 6.0 0.00 0.08 0.00 89 1018.3
20260507074039 56 66 2.0 6.0 0.00 0.08 0.00 89 1018.3
20260507073539 56 85 0.0 7.0 0.00 0.08 0.00 89 1018.2
20260507073049 55 92 2.0 8.0 0.00 0.08 0.00 89 1018.2
20260507072540 55 80 1.0 8.0 0.00 0.08 0.00 89 1018.1
20260507072038 56 66 2.0 8.0 0.00 0.08 0.00 89 1018.0
20260507071551 56 79 1.0 5.0 0.00 0.08 0.00 88 1017.9
20260507071043 56 65 1.0 4.0 0.00 0.08 0.00 88 1017.9
20260507070540 56 94 2.0 4.0 0.00 0.08 0.00 88 1018.0
20260507065542 56 0 1.0 4.0 0.00 0.08 0.00 87 1018.0
20260507065039 56 46 1.0 4.0 0.00 0.08 0.00 87 1018.2
20260507064626 56 54 0.0 4.0 0.00 0.08 0.00 86 1018.2
20260507064040 56 34 0.0 4.0 0.00 0.08 0.00 86 1018.2
20260507063540 56 91 1.0 3.0 0.00 0.08 0.00 86 1018.4
20260507063052 56 86 1.0 3.0 0.00 0.08 0.00 85 1018.3
20260507062540 56 81 0.0 3.0 0.00 0.08 0.00 84 1018.3
20260507062042 57 89 0.0 4.0 0.00 0.08 0.00 84 1018.3
20260507061552 57 0 1.0 7.0 0.00 0.08 0.00 84 1018.3
20260507061040 57 63 2.0 7.0 0.00 0.08 0.00 83 1018.3
20260507060540 57 37 2.0 7.0 0.00 0.08 0.00 83 1018.2
20260507060109 57 69 2.0 7.0 0.00 0.08 0.00 82 1018.3
20260507055540 57 39 3.0 7.0 0.00 0.08 0.00 82 1018.3
20260507055038 57 65 1.0 7.0 0.00 0.08 0.00 82 1018.3
20260507054557 58 65 3.0 7.0 0.00 0.08 0.00 81 1018.2
20260507054040 58 89 2.0 7.0 0.00 0.08 0.00 81 1018.2
20260507053540 58 99 2.0 7.0 0.00 0.08 0.00 81 1018.4
20260507053103 58 70 2.0 7.0 0.00 0.08 0.00 81 1018.4
20260507052540 58 56 2.0 6.0 0.00 0.08 0.00 81 1018.3
20260507052040 58 85 3.0 6.0 0.00 0.08 0.00 81 1018.3
20260507051604 58 70 2.0 7.0 0.00 0.08 0.00 81 1018.3
20260507051039 58 36 3.0 7.0 0.00 0.08 0.00 81 1018.3
20260507050539 58 57 3.0 7.0 0.00 0.08 0.00 81 1018.2
20260507050050 58 77 2.0 7.0 0.00 0.08 0.00 81 1018.3
20260507045540 58 59 2.0 7.0 0.00 0.08 0.08 81 1018.4
20260507045041 58 46 3.0 6.0 0.00 0.08 0.08 81 1018.4
20260507044557 59 62 1.0 5.0 0.00 0.08 0.08 81 1018.5
20260507044041 59 122 1.0 5.0 0.00 0.08 0.08 82 1018.6
20260507043540 59 68 1.0 8.0 0.00 0.08 0.08 81 1018.5
20260507043056 59 49 1.0 8.0 0.00 0.08 0.08 81 1018.5
20260507042538 59 39 2.0 7.0 0.00 0.08 0.08 81 1018.5
20260507042037 59 73 3.0 7.0 0.00 0.08 0.08 81 1018.6
20260507041551 59 80 1.0 7.0 0.00 0.08 0.08 81 1018.6
20260507041038 59 117 2.0 8.0 0.00 0.08 0.08 81 1018.6
20260507040538 59 65 3.0 8.0 0.00 0.08 0.08 81 1018.6
20260507040052 59 72 2.0 8.0 0.00 0.08 0.08 82 1018.6
20260507035537 59 84 3.0 8.0 0.00 0.08 0.08 82 1018.7
20260507035036 59 63 2.0 5.0 0.00 0.08 0.08 82 1018.8
20260507034551 59 59 1.0 4.0 0.00 0.08 0.08 83 1018.8
20260507034036 59 36 1.0 4.0 0.00 0.08 0.08 84 1018.8
20260507033537 59 56 1.0 4.0 0.00 0.08 0.08 84 1018.6
20260507033053 59 0 1.0 6.0 0.00 0.08 0.08 84 1018.5
20260507032536 59 54 1.0 6.0 0.00 0.08 0.08 84 1018.5
20260507032041 59 131 0.0 5.0 0.00 0.08 0.08 84 1018.5
20260507031552 58 81 1.0 6.0 0.00 0.08 0.08 84 1018.4
20260507031038 59 343 1.0 6.0 0.00 0.08 0.08 85 1018.3
20260507030538 58 28 0.0 7.0 0.00 0.08 0.08 85 1018.2
20260507030049 58 12 2.0 7.0 0.00 0.08 0.08 86 1018.0
20260507025537 58 44 1.0 6.0 0.00 0.08 0.08 86 1017.9
20260507025039 58 57 2.0 6.0 0.00 0.08 0.08 87 1017.8
20260507024548 58 87 1.0 5.0 0.00 0.08 0.08 87 1017.8
20260507024038 58 108 0.0 4.0 0.00 0.08 0.08 87 1017.8
20260507023537 58 60 0.0 3.0 0.00 0.08 0.08 87 1017.6
20260507023051 58 67 0.0 4.0 0.00 0.08 0.08 87 1017.6
20260507022536 58 60 1.0 4.0 0.00 0.08 0.08 87 1017.4
20260507022037 58 0 1.0 3.0 0.00 0.08 0.08 88 1017.4
20260507021550 58 124 0.0 4.0 0.00 0.08 0.08 88 1017.4
20260507021036 58 0 1.0 4.0 0.00 0.08 0.08 87 1017.3
20260507020538 58 6 1.0 3.0 0.00 0.08 0.08 87 1017.1
20260507015540 58 63 1.0 5.0 0.00 0.08 0.08 87 1017.0
20260507015037 58 43 1.0 5.0 0.00 0.08 0.08 88 1016.8
20260507014556 58 0 1.0 5.0 0.00 0.08 0.08 88 1016.7
20260507014037 58 75 2.0 5.0 0.00 0.08 0.08 88 1016.5
20260507013536 58 0 0.0 4.0 0.00 0.08 0.08 88 1016.4
20260507013056 58 82 1.0 4.0 0.00 0.08 0.08 88 1016.4
20260507012538 58 38 1.0 4.0 0.00 0.08 0.08 88 1016.3
20260507012040 58 23 1.0 7.0 0.00 0.08 0.08 88 1016.3
20260507011550 58 100 1.0 7.0 0.00 0.08 0.08 88 1016.2
20260507011039 58 55 1.0 6.0 0.00 0.08 0.08 88 1016.2
20260507010539 58 65 1.0 6.0 0.05 0.08 0.08 88 1016.2
20260507010100 58 74 1.0 4.0 0.05 0.08 0.08 88 1016.1
20260507005540 58 100 0.0 4.0 0.05 0.08 0.08 88 1016.0
20260507005041 58 54 1.0 3.0 0.05 0.08 0.08 88 1015.9
20260507004551 58 86 0.0 5.0 0.05 0.08 0.08 88 1016.0
20260507004039 58 75 1.0 5.0 0.05 0.08 0.08 88 1016.0
20260507003539 58 70 0.0 5.0 0.05 0.08 0.08 88 1016.1
20260507003050 58 0 0.0 5.0 0.05 0.08 0.08 88 1015.8
20260507002537 58 36 0.0 7.0 0.05 0.08 0.08 87 1015.8
20260507002039 58 86 1.0 7.0 0.05 0.08 0.08 86 1015.7
20260507001555 59 20 2.0 7.0 0.05 0.08 0.08 85 1015.6
20260507001038 60 65 1.0 8.0 0.05 0.08 0.08 83 1015.7
20260507000541 60 84 0.0 8.0 0.00 0.03 0.03 82 1015.9
20260507000051 60 65 2.0 10.0 0.00 0.03 0.03 82 1015.6
20260506235540 60 0 2.0 10.0 0.00 0.03 0.03 81 1015.5
20260506235040 61 46 4.0 8.0 0.00 0.03 0.03 81 1014.8
20260506234547 61 60 1.0 4.0 0.00 0.03 0.03 80 1015.7
20260506234039 61 0 0.0 6.0 0.00 0.03 0.03 80 1015.2
20260506233542 61 75 1.0 6.0 0.00 0.03 0.03 80 1015.2
20260506233048 61 124 3.0 6.0 0.00 0.03 0.03 79 1015.0
20260506232539 61 70 2.0 6.0 0.00 0.03 0.03 80 1015.2
20260506232040 61 37 1.0 5.0 0.00 0.03 0.03 79 1015.2
20260506231605 61 54 1.0 5.0 0.00 0.03 0.03 79 1015.2
20260506231041 61 68 1.0 4.0 0.00 0.03 0.03 79 1015.2
20260506230541 61 58 0.0 4.0 0.00 0.03 0.03 79 1015.1
20260506230109 61 68 0.0 5.0 0.00 0.03 0.03 79 1015.1
20260506225539 61 63 1.0 8.0 0.00 0.03 0.03 79 1015.1
20260506225039 61 46 1.0 8.0 0.00 0.03 0.03 79 1015.2
20260506224550 61 0 2.0 5.0 0.00 0.03 0.03 80 1015.2
20260506224040 61 73 2.0 7.0 0.00 0.03 0.03 79 1015.3
20260506223541 61 108 0.0 7.0 0.00 0.03 0.03 80 1015.2
20260506223047 61 75 2.0 7.0 0.00 0.03 0.03 80 1014.9
20260506222540 61 68 1.0 5.0 0.00 0.03 0.03 80 1014.7
20260506222042 61 45 1.0 5.0 0.00 0.03 0.03 80 1015.0
20260506221610 61 78 1.0 5.0 0.00 0.03 0.03 80 1014.9
20260506221042 61 0 0.0 3.0 0.00 0.03 0.03 81 1014.6
20260506220540 61 0 0.0 3.0 0.00 0.03 0.03 81 1014.9
20260506220105 61 0 1.0 3.0 0.00 0.03 0.03 81 1014.6
20260506215537 61 0 0.0 3.0 0.00 0.03 0.03 82 1014.9
20260506215041 61 0 0.0 3.0 0.00 0.03 0.03 81 1014.7
20260506214550 61 308 0.0 4.0 0.00 0.03 0.03 81 1014.4
20260506214041 61 128 1.0 4.0 0.00 0.03 0.03 81 1014.6
20260506213540 61 44 0.0 3.0 0.00 0.03 0.03 82 1014.5
20260506213105 60 305 0.0 2.0 0.00 0.03 0.03 81 1014.7
20260506212540 60 192 0.0 2.0 0.00 0.03 0.03 82 1014.7
20260506212039 60 0 0.0 2.0 0.00 0.03 0.03 82 1014.6
20260506211550 60 310 0.0 4.0 0.00 0.03 0.03 82 1014.7
20260506211040 60 295 0.0 4.0 0.00 0.03 0.03 82 1014.7
20260506210539 60 308 0.0 1.0 0.00 0.03 0.03 84 1014.6
20260506210056 60 0 0.0 1.0 0.01 0.03 0.03 84 1014.7
20260506205537 60 0 0.0 2.0 0.02 0.03 0.03 85 1014.8
20260506205039 59 0 0.0 2.0 0.02 0.03 0.03 85 1014.9
20260506204601 59 0 0.0 1.0 0.02 0.03 0.03 86 1015.1
20260506204037 59 257 0.0 1.0 0.02 0.03 0.03 86 1015.1
20260506203542 59 0 0.0 1.0 0.02 0.03 0.03 87 1015.3
20260506203052 58 305 0.0 1.0 0.02 0.03 0.03 87 1015.3
20260506202540 58 0 0.0 1.0 0.02 0.03 0.03 87 1015.4
20260506202040 58 0 0.0 1.0 0.02 0.03 0.03 87 1015.4
20260506201552 58 0 0.0 1.0 0.02 0.03 0.03 86 1015.6
20260506201043 58 329 0.0 1.0 0.02 0.03 0.03 85 1015.5
20260506200541 58 0 0.0 1.0 0.02 0.03 0.03 84 1015.6
20260506200054 59 56 0.0 1.0 0.01 0.02 0.02 83 1015.5
20260506195543 59 0 0.0 2.0 0.00 0.01 0.01 83 1015.7
20260506195040 59 0 0.0 2.0 0.00 0.01 0.01 82 1015.6
20260506194549 59 263 0.0 3.0 0.00 0.01 0.01 81 1015.6
20260506194040 58 0 0.0 3.0 0.00 0.01 0.01 81 1015.6
20260506193540 58 290 0.0 3.0 0.00 0.01 0.01 81 1015.6
20260506193047 58 289 0.0 2.0 0.00 0.01 0.01 81 1015.5
20260506192539 58 0 0.0 1.0 0.00 0.01 0.01 82 1015.8
20260506192039 58 0 0.0 2.0 0.00 0.01 0.01 82 1015.7
20260506191604 58 291 0.0 2.0 0.00 0.01 0.01 82 1015.8
20260506191040 58 0 0.0 2.0 0.00 0.01 0.01 82 1016.0
20260506190542 58 0 0.0 2.0 0.00 0.01 0.01 82 1015.9
20260506190051 58 0 0.0 2.0 0.00 0.01 0.01 81 1015.9
20260506185539 58 0 0.0 5.0 0.00 0.01 0.01 81 1015.8
20260506185037 58 304 1.0 5.0 0.00 0.01 0.01 81 1015.8
20260506184613 58 338 0.0 3.0 0.00 0.01 0.01 82 1015.6
20260506184037 58 321 0.0 4.0 0.00 0.01 0.01 81 1015.4
20260506183544 58 305 0.0 4.0 0.00 0.01 0.01 82 1015.3
20260506183053 58 317 0.0 4.0 0.00 0.01 0.01 82 1015.4
20260506182537 58 43 0.0 4.0 0.00 0.01 0.01 82 1015.5
20260506182040 58 67 1.0 4.0 0.00 0.01 0.01 81 1015.9
20260506181552 58 63 0.0 2.0 0.00 0.01 0.01 81 1015.6
20260506181040 58 89 0.0 4.0 0.00 0.01 0.01 81 1015.7
20260506180538 58 350 0.0 4.0 0.00 0.01 0.01 81 1015.7
20260506180052 58 63 2.0 6.0 0.00 0.01 0.01 80 1015.5
20260506175539 58 0 0.0 6.0 0.00 0.01 0.01 82 1014.7
20260506175043 58 318 0.0 6.0 0.00 0.01 0.01 82 1014.0
20260506174545 58 49 2.0 6.0 0.00 0.01 0.01 81 1013.8
20260506174037 58 309 1.0 5.0 0.00 0.01 0.01 82 1013.9
20260506173540 58 62 1.0 6.0 0.00 0.01 0.01 81 1013.8
20260506173051 58 275 2.0 6.0 0.00 0.01 0.01 81 1013.8
20260506172537 58 61 0.0 8.0 0.00 0.01 0.01 81 1014.5
20260506172043 58 84 2.0 8.0 0.00 0.01 0.01 81 1015.2
20260506171558 58 55 2.0 7.0 0.00 0.01 0.01 81 1015.0
20260506171038 58 297 1.0 4.0 0.00 0.01 0.01 82 1015.4
20260506170536 58 67 1.0 5.0 0.00 0.01 0.01 81 1015.9
20260506170057 58 77 1.0 5.0 0.00 0.01 0.01 81 1016.4
20260506165538 58 30 0.0 5.0 0.00 0.01 0.01 83 1015.7
20260506165040 58 78 0.0 6.0 0.00 0.01 0.01 83 1015.6
20260506164550 57 53 2.0 6.0 0.00 0.01 0.01 83 1015.6
20260506164040 57 70 2.0 9.0 0.00 0.01 0.01 84 1015.7
20260506163537 57 79 2.0 9.0 0.00 0.01 0.01 83 1014.6
20260506163047 57 0 1.0 7.0 0.00 0.01 0.01 84 1014.9
20260506162540 57 315 1.0 8.0 0.00 0.01 0.01 85 1015.0
20260506162040 56 319 3.0 8.0 0.00 0.01 0.01 85 1015.3
20260506161550 56 37 2.0 8.0 0.01 0.01 0.01 85 1015.5
20260506161039 56 293 1.0 6.0 0.01 0.01 0.01 85 1015.2
20260506160539 56 65 2.0 6.0 0.01 0.01 0.01 85 1015.6
20260506160107 56 59 0.0 2.0 0.01 0.01 0.01 86 1015.7
20260506155539 55 314 0.0 5.0 0.01 0.01 0.01 86 1015.6
20260506155039 55 306 0.0 5.0 0.01 0.01 0.01 85 1015.5
20260506154554 55 28 0.0 3.0 0.01 0.01 0.01 86 1015.7
20260506154039 55 0 0.0 4.0 0.01 0.01 0.01 86 1015.7
20260506153542 55 78 0.0 4.0 0.01 0.01 0.01 86 1015.7
20260506153052 55 44 1.0 4.0 0.01 0.01 0.01 85 1016.2
20260506152544 55 0 0.0 2.0 0.01 0.01 0.01 84 1016.2
20260506152039 55 0 0.0 2.0 0.01 0.01 0.01 84 1016.2
20260506151556 56 0 0.0 2.0 0.00 0.00 0.00 83 1016.5
20260506151038 56 0 0.0 2.0 0.00 0.00 0.00 81 1016.2
20260506150540 56 306 0.0 2.0 0.00 0.00 0.00 81 1016.9
20260506150056 56 307 0.0 2.0 0.00 0.00 0.00 81 1016.9
20260506145540 56 301 0.0 1.0 0.00 0.00 0.00 81 1016.1
20260506145041 56 0 0.0 3.0 0.00 0.00 0.00 81 1016.0
20260506144600 56 297 0.0 3.0 0.00 0.00 0.00 82 1015.9
20260506144039 56 0 1.0 4.0 0.00 0.00 0.00 81 1015.6
20260506143539 56 55 1.0 4.0 0.00 0.00 0.00 81 1015.9
20260506143053 56 293 0.0 4.0 0.00 0.00 0.00 81 1015.7
20260506142540 56 0 0.0 5.0 0.00 0.00 0.00 80 1015.2
20260506142039 56 318 0.0 5.0 0.00 0.00 0.00 80 1015.1
20260506141549 56 291 0.0 2.0 0.00 0.00 0.00 80 1015.3
20260506141039 56 0 0.0 3.0 0.00 0.00 0.00 81 1015.2
20260506140540 56 0 0.0 3.0 0.00 0.00 0.00 80 1015.0
20260506140051 56 292 0.0 3.0 0.00 0.00 0.00 80 1015.0
20260506135539 56 0 0.0 6.0 0.00 0.00 0.00 80 1015.2
20260506135039 56 24 0.0 6.0 0.00 0.00 0.00 80 1014.9
20260506134547 56 311 1.0 4.0 0.00 0.00 0.00 80 1014.8
20260506134040 56 0 1.0 4.0 0.00 0.00 0.00 80 1014.7
20260506133540 56 6 0.0 5.0 0.00 0.00 0.00 80 1014.7
20260506133048 56 313 1.0 7.0 0.00 0.00 0.00 79 1014.6
20260506132543 56 309 0.0 7.0 0.00 0.00 0.00 79 1014.5
20260506132039 56 0 0.0 5.0 0.00 0.00 0.00 79 1014.3
20260506131557 56 197 1.0 5.0 0.00 0.00 0.00 79 1014.1
20260506131039 57 79 1.0 5.0 0.00 0.00 0.00 79 1014.1
20260506130540 57 308 1.0 5.0 0.00 0.00 0.00 78 1014.1
20260506130056 57 34 1.0 8.0 0.00 0.00 0.00 78 1014.2
20260506125537 57 75 0.0 8.0 0.00 0.00 0.00 78 1014.2
20260506125039 57 0 0.0 3.0 0.00 0.00 0.00 78 1014.0
20260506124553 57 50 0.0 5.0 0.00 0.00 0.00 78 1013.9
20260506124039 57 320 1.0 5.0 0.00 0.00 0.00 78 1013.8
20260506123539 57 0 0.0 7.0 0.00 0.00 0.00 78 1013.7
20260506123053 57 314 0.0 7.0 0.00 0.00 0.00 78 1013.5
20260506122538 57 316 0.0 2.0 0.00 0.00 0.00 78 1013.5
20260506122039 57 0 0.0 1.0 0.00 0.00 0.00 77 1013.4
20260506121553 57 0 0.0 4.0 0.00 0.00 0.00 77 1013.4
20260506121039 57 0 0.0 4.0 0.00 0.00 0.00 77 1013.4